Location: ????
(55.5675°N, 37.6272°E)
Time: 14:23:14
(UTC+00:00)

Aureole 3 Rocket - Pass Details

Date: 14 April 2026
Orbit: 399 x 1686 km, 82.5° (Epoch: 17 May)

Event Time Altitude Azimuth Distance (km) Brightness Sun altitude
Exits shadow 22:17:48 81° 198° (SSW) 680 3.0 -24.0°
Maximum altitude 22:18:01 89° 274° (W) 681 3.1 -24.0°
Drops below altitude 10° 22:23:35 10° 12° (NNE) 2,531 7.3 -23.8°
Sets 22:26:30 0° 13° (NNE) 3,699 8.5 -23.7°
